#timestamp,LO_Frequency,Hit,StdDev 
1572217215.4,286046996.6,N
1572217235.3,286046997.0,N
1572217255.1,286046997.2,N
1572217275.8,286046996.5,N
1572217295.7,286046999.2,N
1572217315.5,286046999.2,N
1572217335.4,286046998.8,N
1572217355.2,286046999.6,N
1572217375.0,286046996.9,N
1572217375.9,286046996.9,N
1572217395.8,286046997.5,N
1572217415.6,286046995.1,N
1572217435.4,286046997.7,N
1572217455.3,286046997.4,N
1572217475.1,286046999.1,N
1572217495.9,286046999.2,N
1572217515.7,286046996.9,N
1572217535.5,286046999.2,N
1572217555.4,286047001.1,N
1572217575.2,286047001.0,N
1572217595.0,286047000.9,N
1572217595.9,286047000.9,N
1572217615.8,286047000.5,N
1572217635.6,286047000.1,N
1572217655.5,286047002.7,N
1572217675.3,286046998.1,N
1572217695.1,286046998.8,N
1572217715.9,286046998.3,N
1572217735.7,286046998.3,N
1572217755.5,286046998.2,N
1572217775.4,286047001.0,N
1572217795.2,286047000.3,N
1572217815.1,286046998.2,N
1572217816.0,286046998.2,N
1572217835.8,286046999.4,N
1572217855.6,286046997.5,N
1572217875.5,286046996.6,N
1572217895.3,286046996.8,N
1572217915.1,286046995.0,N
1572217935.9,286046995.5,N
1572217955.7,286046998.0,N
1572217975.6,286046996.5,N
1572217995.4,286046998.0,N
1572218015.2,286046999.3,N
1572218035.1,286046997.0,N
1572218036.0,286046997.0,N
1572218055.8,286046996.5,N
1572218075.7,286047001.2,N
1572218095.5,286047000.0,N
1572218115.3,286047011.9,Y
1572218135.2,286047002.1,P
1572218155.0,286047000.6,N
1572218155.9,286047000.6,N
1572218175.8,286046999.9,N
1572218195.6,286047000.1,N
1572218215.4,286047000.0,N
1572218235.3,286047001.2,N
1572218255.1,286046998.2,N
1572218275.8,286046998.9,N
1572218295.7,286046997.1,N
1572218315.5,286046998.1,N
1572218335.4,286046998.9,N
1572218355.2,286046998.8,N
1572218375.0,286046998.9,N
1572218375.9,286046998.9,N
1572218395.8,286046999.5,N
1572218415.6,286046997.0,N
1572218435.4,286046997.0,N
1572218455.3,286046997.0,N
1572218475.1,286046997.5,N
1572218495.9,286046999.2,N
1572218515.7,286046997.0,N
1572218535.5,286046998.1,N
1572218555.4,286046998.5,N
1572218575.2,286047000.7,N
1572218595.0,286047000.8,N
1572218596.0,286047000.8,N
1572218615.8,286046998.4,N
1572218635.6,286046998.2,N
1572218655.5,286046999.5,N
1572218675.3,286046997.7,N
1572218695.1,286046996.9,N
1572218715.9,286046996.9,N
1572218735.7,286046996.6,N
1572218755.5,286046997.2,N
1572218775.4,286046999.0,N
1572218795.2,286046997.2,N
1572218815.1,286046997.1,N
1572218816.0,286046997.1,N
1572218835.8,286046999.5,N
1572218855.6,286046997.4,N
1572218875.5,286046998.5,N
1572218895.3,286046998.5,N
1572218915.1,286046998.5,N
1572218935.9,286046999.9,N
1572218955.7,286047000.9,N
1572218975.6,286047001.0,N
1572218995.4,286046999.4,N
1572219015.2,286046998.8,N
1572219035.1,286047000.5,N
1572219036.0,286047000.5,N
1572219055.8,286047000.2,N
1572219075.6,286047000.1,N
1572219095.5,286047002.4,N
1572219115.3,286047002.2,N
1572219135.2,286047000.5,N
1572219155.9,286047000.1,N
1572219175.7,286047001.1,N
1572219195.6,286047000.7,N
1572219215.4,286047000.2,N
1572219235.2,286047001.0,N
1572219255.1,286047000.4,N
1572219256.0,286047000.4,N
1572219275.8,286047000.5,N
1572219295.7,286047000.2,N
1572219315.5,286047000.5,N
1572219335.3,286047001.0,N
1572219355.2,286046998.1,N
1572219375.0,286047001.2,N
1572219375.9,286047001.2,N
1572219395.7,286047000.7,N
1572219415.6,286047000.6,N
1572219435.4,286047000.5,N
1572219455.3,286047002.1,N
1572219475.1,286047000.5,N
1572219476.0,286047000.5,N
1572219495.8,286047002.8,Y
1572219515.7,286047001.0,P
1572219535.5,286047001.2,P
1572219555.3,286047000.4,N
1572219575.2,286047000.1,N
1572219595.0,286047000.3,N
1572219595.9,286047000.3,N
1572219615.8,286046998.1,Y
1572219635.6,286046996.6,P
1572219655.4,286046996.9,N
1572219675.3,286046999.1,N
1572219695.1,286046998.4,N
1572219715.9,286046999.2,N
1572219735.7,286046997.8,N
1572219755.5,286046997.8,N
1572219775.4,286046997.6,N
1572219795.2,286046996.1,Y
1572219815.0,286046997.7,P
1572219815.9,286046997.7,P
1572219835.8,286046996.9,P
1572219855.6,286046996.8,Y
1572219875.5,286046998.5,P
1572219895.3,286046998.6,P
1572219915.1,286046998.7,P
1572219935.9,286047002.5,Y
1572219955.7,286047002.9,P
1572219975.5,286047005.9,N
1572219995.4,286047005.9,N
1572220015.2,286047003.6,N
1572220035.1,286047004.1,N
1572220036.0,286047004.1,N
1572220055.8,286047003.5,N
1572220075.6,286047003.5,N
1572220095.5,286047004.2,N
1572220115.3,286047003.7,N
1572220135.1,286047001.9,N
1572220155.9,286047002.8,N
1572220175.7,286047002.5,N
1572220195.6,286047002.6,N
1572220215.4,286047001.5,N
1572220235.2,286047001.9,N
1572220255.1,286047004.0,N
1572220256.0,286047004.0,N
1572220275.8,286047001.5,N
1572220295.6,286047003.1,N
1572220315.5,286047001.6,N
1572220335.3,286047002.1,N
1572220355.2,286047001.6,N
1572220375.9,286047003.2,N
1572220395.7,286047003.0,N
1572220415.6,286047003.4,N
1572220435.4,286047004.5,Y
1572220455.2,286047001.7,P
1572220475.1,286047001.3,N
1572220476.0,286047001.3,N
1572220495.8,286047002.0,N
1572220515.7,286047000.1,N
1572220535.5,286047002.4,N
1572220555.3,286047002.6,Y
1572220575.2,286047002.4,P
1572220595.0,286047002.8,P
1572220595.9,286047002.8,P
1572220615.7,286047000.4,N
1572220635.6,286047000.2,N
1572220655.4,286047002.3,N
1572220675.3,286047000.3,N
1572220695.1,286047002.3,N
1572220696.0,286047002.3,N
1572220715.8,286047002.0,N
1572220735.7,286047000.2,N
1572220755.5,286047000.6,N
1572220775.3,286046998.3,N
1572220795.2,286046998.8,N
